Regional Weather Roundup
Issued by NWS Albany, NY

Home | Current Version | Previous Version | Text Only | Print | Product List | Glossary On
Versions: 1 2 3 4 5 6 7 8 9 10 11 12 13 14 15 16 17 18 19 20 21 22 23 24 25 26 27 28 29 30 31 32 33 34 35 36 37 38 39 40 41 42 43 44 45 46 47 48 49 50
000
ASUS41 KALY 011310
RWRALY

NEW YORK STATE HOURLY WEATHER ROUNDUP
NATIONAL WEATHER SERVICE ALBANY NY
900 AM EDT WED JUL 01 2015

NOTE: "FAIR" INDICATES FEW OR NO CLOUDS BELOW 12,000 FEET WITH NO
SIGNIFICANT WEATHER AND/OR NO OBSTRUCTIONS TO VISIBILITY.

NYZ032-033-038>043-046>054-057>066-NYZ062>081-011400-
EAST


CITY           SKY/WX    TMP DP  RH WIND       PRES   REMARKS
ALBANY         LGT RAIN  68  65  90 S8        29.73R
GLENS FALLS    LGT RAIN  65  63  93 CALM      29.72S FOG
POUGHKEEPSIE   CLOUDY    71  67  87 CALM      29.76R
NEWBURGH       PTSUNNY   68  68 100 SW9       29.79R
MONTGOMERY     CLOUDY    71  68  90 SW7       29.76S
WHITE PLAINS   PTSUNNY   71  67  87 VRB3      29.78S
ISLIP          PTSUNNY   72  68  87 SW10      29.78R
NEW YORK CITY  PTSUNNY   72  64  76 SW12G20   29.78R
CENTRAL PARK   PTSUNNY   71  67  87 MISG      29.82R FOG
$$

NYZ005>009-017-018-044>046-055-056-011400-
CENTRAL


CITY           SKY/WX    TMP DP  RH WIND       PRES   REMARKS
FULTON         CLOUDY    65  62  90 W6        29.72S
SYRACUSE       CLOUDY    67  64  90 SW7       29.72S
ROME           LGT RAIN  64  63  96 W7        29.73S
ELMIRA         PTSUNNY   68  62  81 SW10      29.76S
BINGHAMTON     PTSUNNY   63  61  93 SW9       29.79R
MONTICELLO     CLOUDY    64  63  94 W9G18     29.81R
$$

NYZ026>034-041>043-011400-
NORTH


CITY           SKY/WX    TMP DP  RH WIND       PRES   REMARKS
WATERTOWN      CLOUDY    63  61  93 W10       29.70R FOG
FORT DRUM      NOT AVBL
MASSENA        LGT RAIN  64  62  93 CALM      29.67F
SARANAC LAKE   CLOUDY    62  61  96 CALM      29.70F
PLATTSBURGH    LGT RAIN  64  62  93 S7        29.69F
$$

NYZ001>004-010>016-019>021-011400-
WEST


CITY           SKY/WX    TMP DP  RH WIND       PRES   REMARKS
NIAGARA FALLS  PTSUNNY   65  59  81 W13       29.73S
BUFFALO        CLOUDY    65  63  93 W10       29.74R
DUNKIRK        CLOUDY    64  62  93 W14G21    29.78R
JAMESTOWN      CLOUDY    61  57  88 W10       29.81S
WELLSVILLE     LGT RAIN  65  59  81 SW9       29.81F
ROCHESTER      PTSUNNY   66  62  87 SW8       29.73R
PENN YAN       PTSUNNY   68  61  78 SW7       29.75F
$$

             KEY
       WCI = WIND CHILL INDEX
       VSB = VISIBILITY
       HX  = HEAT INDEX
$$


USA.gov is the U.S. government's official web portal to all federal, state and local government web resources and services.